Weather History for Tehachapi, CA

Change the Weather History Date:

Thursday, September 19, 2013

  Actual Average Record
Temperature  
Mean Temperature 62 °F -  
Max Temperature 84 °F 76 °F 86 °F (2011)
Min Temperature 41 °F 49 °F 41 °F (2013)
Degree Days  
Heating Degree Days 2    
Growing Degree Days 12 (Base 50)    
Moisture  
Dew Point 33 °F    
Average Humidity 43    
Maximum Humidity 81    
Minimum Humidity 9    
Precipitation  
Precipitation 0.00 in - - ()
Sea Level Pressure  
Sea Level Pressure 29.96 in    
Wind  
Wind Speed 6 mph (ESE)    
Max Wind Speed 18 mph    
Max Gust Speed 25 mph    
Visibility 10 miles    
Events      
Averages and records for this station are not official NWS values.
T = Trace of Precipitation, MM = Missing Value Source: NWS Daily Summary

Daily Weather History Graph

Daily Weather History Graph

Search for Another Location

Airport:

Trip Planner

Search our weather history database for the weather conditions in past years. The results will help you decide how hot, cold, wet, or windy it might be!

Date:

Astronomy

Sep. 19, 2013 Rise Set
Actual Time 6:39 AM PDT 6:54 PM PDT
Civil Twilight 6:14 AM PDT 7:19 PM PDT
Nautical Twilight 5:44 AM PDT 7:49 PM PDT
Astronomical Twilight 5:14 AM PDT 8:19 PM PDT
Moon 6:58 PM PDT (9/19) 6:52 AM PDT (9/19)
Length of Visible Light 13h 05m
Length of Day
12h 14m
Full, 100% of the Moon is Illuminated
Sep 19
Full
Sep 26
Last Quarter
Oct 4
New
Oct 11
First Quarter
Oct 18
Full

Hourly Weather History & Observations

Time (PDT) Temp. Windchill Dew Point Humidity Pressure Visibility Wind Dir Wind Speed Gust Speed Precip Events Conditions
12:15 AM 48.2 °F - 39.2 °F 71% 29.98 in 10.0 mi SE 6.9 mph - N/A   Clear
12:35 AM 46.4 °F 44.3 °F 39.2 °F 76% 29.97 in 10.0 mi ESE 4.6 mph - N/A   Clear
12:55 AM 48.2 °F - 39.2 °F 71% 29.97 in 10.0 mi ESE 4.6 mph - N/A   Clear
1:15 AM 48.2 °F - 39.2 °F 71% 29.97 in 10.0 mi ENE 3.5 mph - N/A   Clear
1:35 AM 48.2 °F - 39.2 °F 71% 29.97 in 10.0 mi Calm Calm - N/A   Clear
1:55 AM 46.4 °F - 39.2 °F 76% 29.97 in 10.0 mi Calm Calm - N/A   Clear
2:15 AM 46.4 °F - 37.4 °F 71% 29.97 in 10.0 mi Calm Calm - N/A   Clear
2:35 AM 44.6 °F 42.2 °F 37.4 °F 76% 29.97 in 10.0 mi NE 4.6 mph - N/A   Clear
2:55 AM 44.6 °F - 37.4 °F 76% 29.97 in 10.0 mi Calm Calm - N/A   Clear
3:15 AM 44.6 °F 43.1 °F 37.4 °F 76% 29.97 in 10.0 mi ENE 3.5 mph - N/A   Clear
3:35 AM 44.6 °F 42.2 °F 37.4 °F 76% 29.97 in 10.0 mi SE 4.6 mph - N/A   Clear
3:55 AM 44.6 °F 42.2 °F 37.4 °F 76% 29.96 in 10.0 mi SE 4.6 mph - N/A   Clear
4:15 AM 44.6 °F - 37.4 °F 76% 29.96 in 10.0 mi Calm Calm - N/A   Clear
4:35 AM 44.6 °F 41.4 °F 37.4 °F 76% 29.96 in 10.0 mi ESE 5.8 mph - N/A   Clear
4:55 AM 44.6 °F 42.2 °F 37.4 °F 76% 29.96 in 10.0 mi ESE 4.6 mph - N/A   Clear
5:15 AM 44.6 °F 41.4 °F 35.6 °F 71% 29.96 in 10.0 mi SE 5.8 mph - N/A   Clear
5:35 AM 44.6 °F - 35.6 °F 71% 29.96 in 10.0 mi Calm Calm - N/A   Clear
5:55 AM 41.0 °F - 35.6 °F 81% 29.97 in 10.0 mi Calm Calm - N/A   Clear
6:15 AM 41.0 °F - 35.6 °F 81% 29.97 in 10.0 mi Calm Calm - N/A   Clear
6:35 AM 41.0 °F - 35.6 °F 81% 29.97 in 10.0 mi Calm Calm - N/A   Clear
6:55 AM 41.0 °F 38.0 °F 33.8 °F 76% 29.98 in 9.0 mi ESE 4.6 mph - N/A   Clear
7:15 AM 42.8 °F 41.1 °F 35.6 °F 76% 29.98 in 8.0 mi East 3.5 mph - N/A   Clear
7:35 AM 44.6 °F - 35.6 °F 71% 29.98 in 9.0 mi Calm Calm - N/A   Clear
7:55 AM 48.2 °F - 35.6 °F 62% 29.98 in 9.0 mi Calm Calm - N/A   Clear
8:15 AM 51.8 °F - 37.4 °F 58% 29.98 in 9.0 mi Calm Calm - N/A   Clear
8:35 AM 55.4 °F - 37.4 °F 51% 29.97 in 8.0 mi Calm Calm - N/A   Clear
8:55 AM 59.0 °F - 37.4 °F 45% 29.98 in 8.0 mi Calm Calm - N/A   Clear
9:15 AM 71.6 °F - 28.4 °F 20% 29.98 in 10.0 mi ESE 9.2 mph - N/A   Clear
9:35 AM 77.0 °F - 23.0 °F 13% 29.98 in 10.0 mi ESE 11.5 mph - N/A   Clear
9:55 AM 77.0 °F - 23.0 °F 13% 29.98 in 10.0 mi ESE 12.7 mph - N/A   Clear
10:15 AM 78.8 °F - 23.0 °F 13% 29.98 in 10.0 mi SE 12.7 mph 18.4 mph N/A   Clear
10:35 AM 80.6 °F - 23.0 °F 12% 29.99 in 10.0 mi ESE 15.0 mph 19.6 mph N/A   Clear
10:55 AM 80.6 °F - 23.0 °F 12% 29.99 in 9.0 mi SE 12.7 mph 20.7 mph N/A   Clear
11:15 AM 80.6 °F - 23.0 °F 12% 29.99 in 9.0 mi SE 16.1 mph 23.0 mph N/A   Clear
11:35 AM 80.6 °F - 21.2 °F 11% 29.99 in 9.0 mi ESE 15.0 mph 21.9 mph N/A   Clear
11:55 AM 82.4 °F - 21.2 °F 10% 29.98 in 9.0 mi SE 18.4 mph 23.0 mph N/A   Clear
12:15 PM 82.4 °F - 21.2 °F 10% 29.98 in 10.0 mi ESE 17.3 mph 25.3 mph N/A   Clear
12:35 PM 82.4 °F - 21.2 °F 10% 29.98 in 8.0 mi SE 16.1 mph 23.0 mph N/A   Clear
12:55 PM 82.4 °F - 23.0 °F 11% 29.98 in 10.0 mi SE 16.1 mph 23.0 mph N/A   Clear
1:15 PM 82.4 °F - 23.0 °F 11% 29.98 in 10.0 mi SE 13.8 mph 20.7 mph N/A   Clear
1:35 PM 82.4 °F - 23.0 °F 11% 29.97 in 9.0 mi ESE 15.0 mph 20.7 mph N/A   Clear
1:55 PM 82.4 °F - 23.0 °F 11% 29.97 in 10.0 mi SE 12.7 mph 19.6 mph N/A   Clear
2:15 PM 84.2 °F - 23.0 °F 11% 29.96 in 10.0 mi ESE 11.5 mph 19.6 mph N/A   Clear
2:35 PM 84.2 °F - 21.2 °F 10% 29.95 in 10.0 mi SE 11.5 mph 19.6 mph N/A   Clear
2:55 PM 84.2 °F - 21.2 °F 10% 29.95 in 9.0 mi SE 13.8 mph 17.3 mph N/A   Clear
3:15 PM 84.2 °F - 21.2 °F 10% 29.94 in 10.0 mi ESE 12.7 mph - N/A   Clear
3:35 PM 84.2 °F - 23.0 °F 11% 29.94 in 10.0 mi ESE 9.2 mph 16.1 mph N/A   Clear
3:55 PM 84.2 °F - 19.4 °F 9% 29.94 in 9.0 mi SSE 8.1 mph 18.4 mph N/A   Clear
4:15 PM 84.2 °F - 21.2 °F 10% 29.93 in 10.0 mi ESE 8.1 mph - N/A   Clear
4:35 PM 82.4 °F - 19.4 °F 10% 29.93 in 10.0 mi ESE 6.9 mph - N/A   Clear
4:55 PM 82.4 °F - 35.6 °F 19% 29.92 in 10.0 mi NW 10.4 mph 16.1 mph N/A   Clear
5:15 PM 78.8 °F - 37.4 °F 23% 29.92 in 10.0 mi NW 13.8 mph - N/A   Clear
5:35 PM 77.0 °F - 39.2 °F 26% 29.92 in 10.0 mi NW 13.8 mph - N/A   Clear
5:55 PM 75.2 °F - 39.2 °F 27% 29.93 in 10.0 mi NW 16.1 mph - N/A   Clear
6:15 PM 75.2 °F - 39.2 °F 27% 29.93 in 9.0 mi NW 12.7 mph - N/A   Clear
6:35 PM 73.4 °F - 39.2 °F 29% 29.93 in 10.0 mi NW 12.7 mph 16.1 mph N/A   Clear
6:55 PM 71.6 °F - 41.0 °F 33% 29.94 in 9.0 mi NW 8.1 mph - N/A   Clear
7:15 PM 68.0 °F - 41.0 °F 37% 29.94 in 10.0 mi NW 8.1 mph - N/A   Clear
7:35 PM 66.2 °F - 41.0 °F 40% 29.94 in 10.0 mi NW 6.9 mph - N/A   Clear
7:55 PM 66.2 °F - 41.0 °F 40% 29.95 in 10.0 mi WNW 4.6 mph - N/A   Clear
8:15 PM 66.2 °F - 42.8 °F 43% 29.96 in 10.0 mi NW 3.5 mph - N/A   Clear
8:35 PM 66.2 °F - 42.8 °F 43% 29.96 in 10.0 mi Calm Calm - N/A   Clear
8:55 PM 62.6 °F - 41.0 °F 45% 29.97 in 10.0 mi ESE 3.5 mph - N/A   Clear
9:15 PM 59.0 °F - 41.0 °F 51% 29.97 in 9.0 mi ESE 3.5 mph - N/A   Clear
9:35 PM 59.0 °F - 41.0 °F 51% 29.97 in 9.0 mi Calm Calm - N/A   Clear
9:55 PM 55.4 °F - 39.2 °F 54% 29.97 in 10.0 mi ESE 5.8 mph - N/A   Clear
10:15 PM 57.2 °F - 37.4 °F 48% 29.97 in 10.0 mi SE 5.8 mph - N/A   Clear
10:35 PM 53.6 °F - 35.6 °F 51% 29.97 in 10.0 mi SE 5.8 mph - N/A   Clear
10:55 PM 55.4 °F - 35.6 °F 47% 29.97 in 10.0 mi ENE 3.5 mph - N/A   Clear
11:15 PM 55.4 °F - 33.8 °F 44% 29.96 in 10.0 mi ENE 3.5 mph - N/A   Clear
11:35 PM 55.4 °F - 32.0 °F 41% 29.96 in 10.0 mi Calm Calm - N/A   Clear
11:55 PM 53.6 °F - 32.0 °F 44% 29.96 in 10.0 mi SE 5.8 mph - N/A   Clear